TimeCDT,TemperatureF,Dew PointF,Humidity,Sea Level PressureIn,VisibilityMPH,Wind Direction,Wind SpeedMPH,Gust SpeedMPH,PrecipitationIn,Events,Conditions,WindDirDegrees,DateUTC
12:15 AM,53.6,44.6,72,30.14,10.0,North,4.6,-,N/A,Thunderstorm,Overcast,360,2013-03-20 05:15:00
12:35 AM,53.6,42.8,67,30.12,10.0,ENE,5.8,-,N/A,,Overcast,70,2013-03-20 05:35:00
12:55 AM,53.6,44.6,72,30.13,10.0,North,4.6,-,N/A,,Mostly Cloudy,360,2013-03-20 05:55:00
1:15 AM,53.6,42.8,67,30.14,10.0,North,5.8,-,N/A,,Mostly Cloudy,350,2013-03-20 06:15:00
1:35 AM,51.8,41.0,67,30.15,10.0,North,5.8,-,N/A,,Overcast,360,2013-03-20 06:35:00
1:55 AM,53.6,41.0,62,30.17,10.0,NNW,8.1,-,N/A,,Overcast,340,2013-03-20 06:55:00
2:15 AM,53.6,37.4,54,30.17,10.0,North,5.8,-,N/A,,Mostly Cloudy,360,2013-03-20 07:15:00
2:35 AM,53.6,37.4,54,30.18,10.0,North,6.9,-,N/A,,Mostly Cloudy,360,2013-03-20 07:35:00
2:55 AM,51.8,35.6,54,30.16,10.0,NNE,8.1,-,N/A,,Clear,20,2013-03-20 07:55:00
3:15 AM,50.0,35.6,58,30.16,10.0,NE,4.6,-,N/A,,Partly Cloudy,40,2013-03-20 08:15:00
3:35 AM,50.0,33.8,54,30.16,10.0,NNE,8.1,-,N/A,,Partly Cloudy,20,2013-03-20 08:35:00
3:55 AM,50.0,32.0,50,30.15,10.0,NNE,8.1,-,N/A,,Clear,20,2013-03-20 08:55:00
4:15 AM,50.0,32.0,50,30.16,10.0,NNE,6.9,-,N/A,,Clear,30,2013-03-20 09:15:00
4:35 AM,50.0,32.0,50,30.17,10.0,NNE,4.6,-,N/A,,Clear,20,2013-03-20 09:35:00
4:55 AM,48.2,32.0,54,30.17,10.0,NNE,4.6,-,N/A,,Clear,30,2013-03-20 09:55:00
5:15 AM,48.2,32.0,54,30.18,10.0,NNE,4.6,-,N/A,,Clear,20,2013-03-20 10:15:00
5:35 AM,48.2,32.0,54,30.18,10.0,North,4.6,-,N/A,,Clear,350,2013-03-20 10:35:00
5:55 AM,48.2,32.0,54,30.20,10.0,North,4.6,-,N/A,,Partly Cloudy,350,2013-03-20 10:55:00
6:15 AM,44.6,33.8,66,30.22,10.0,NW,4.6,-,N/A,,Partly Cloudy,320,2013-03-20 11:15:00
6:35 AM,42.8,33.8,70,30.23,10.0,NNW,3.5,-,N/A,,Partly Cloudy,330,2013-03-20 11:35:00
6:55 AM,44.6,33.8,66,30.24,10.0,North,4.6,-,N/A,,Partly Cloudy,350,2013-03-20 11:55:00
7:15 AM,44.6,33.8,66,30.25,10.0,North,5.8,-,N/A,,Clear,350,2013-03-20 12:15:00
7:35 AM,44.6,32.0,61,30.26,10.0,North,5.8,-,N/A,,Clear,350,2013-03-20 12:35:00
7:55 AM,44.6,32.0,61,30.27,10.0,NNW,5.8,-,N/A,,Clear,340,2013-03-20 12:55:00
8:15 AM,44.6,33.8,66,30.27,10.0,Calm,Calm,-,N/A,,Clear,0,2013-03-20 13:15:00
8:35 AM,46.4,33.8,62,30.28,10.0,North,4.6,-,N/A,,Clear,10,2013-03-20 13:35:00
8:55 AM,48.2,33.8,58,30.29,10.0,NNE,6.9,-,N/A,,Clear,30,2013-03-20 13:55:00
9:15 AM,50.0,35.6,58,30.29,10.0,ENE,10.4,-,N/A,,Clear,60,2013-03-20 14:15:00
9:35 AM,51.8,35.6,54,30.29,10.0,ENE,10.4,-,N/A,,Clear,60,2013-03-20 14:35:00
9:55 AM,53.6,35.6,51,30.30,10.0,NE,9.2,-,N/A,,Clear,50,2013-03-20 14:55:00
10:15 AM,53.6,35.6,51,30.30,10.0,ENE,9.2,-,N/A,,Clear,60,2013-03-20 15:15:00
10:35 AM,55.4,35.6,47,30.31,10.0,NE,9.2,-,N/A,,Clear,50,2013-03-20 15:35:00
10:55 AM,57.2,35.6,44,30.31,10.0,NNE,9.2,-,N/A,,Clear,30,2013-03-20 15:55:00
11:15 AM,59.0,35.6,42,30.31,10.0,NE,9.2,-,N/A,,Clear,40,2013-03-20 16:15:00
11:35 AM,59.0,33.8,39,30.31,10.0,NNE,11.5,16.1,N/A,,Clear,30,2013-03-20 16:35:00
11:55 AM,60.8,32.0,34,30.31,10.0,NE,10.4,18.4,N/A,,Clear,50,2013-03-20 16:55:00
12:15 PM,62.6,35.6,37,30.30,10.0,ENE,10.4,-,N/A,,Clear,60,2013-03-20 17:15:00
12:35 PM,62.6,32.0,32,30.29,10.0,East,11.5,-,N/A,,Clear,90,2013-03-20 17:35:00
12:55 PM,62.6,32.0,32,30.27,10.0,NE,11.5,19.6,N/A,,Clear,50,2013-03-20 17:55:00
1:15 PM,64.4,32.0,30,30.27,10.0,East,9.2,17.3,N/A,,Clear,80,2013-03-20 18:15:00
1:35 PM,64.4,32.0,30,30.25,10.0,ENE,6.9,-,N/A,,Clear,60,2013-03-20 18:35:00
1:55 PM,64.4,32.0,30,30.24,10.0,East,6.9,-,N/A,,Clear,90,2013-03-20 18:55:00
2:15 PM,66.2,30.2,26,30.23,10.0,East,9.2,16.1,N/A,,Clear,100,2013-03-20 19:15:00
2:35 PM,66.2,28.4,24,30.21,10.0,ENE,5.8,-,N/A,,Clear,60,2013-03-20 19:35:00
2:55 PM,66.2,28.4,24,30.20,10.0,East,9.2,-,N/A,,Clear,90,2013-03-20 19:55:00
3:15 PM,66.2,28.4,24,30.18,10.0,East,11.5,19.6,N/A,,Clear,80,2013-03-20 20:15:00
3:35 PM,68.0,28.4,23,30.17,10.0,ENE,11.5,16.1,N/A,,Clear,70,2013-03-20 20:35:00
3:55 PM,68.0,26.6,21,30.15,10.0,East,10.4,16.1,N/A,,Clear,100,2013-03-20 20:55:00
4:15 PM,68.0,24.8,20,30.14,10.0,East,10.4,16.1,N/A,,Clear,100,2013-03-20 21:15:00
4:35 PM,68.0,26.6,21,30.13,10.0,ESE,8.1,-,N/A,,Clear,110,2013-03-20 21:35:00
4:55 PM,68.0,26.6,21,30.13,10.0,ENE,5.8,17.3,N/A,,Clear,70,2013-03-20 21:55:00
5:15 PM,68.0,26.6,21,30.11,10.0,ESE,10.4,-,N/A,,Clear,120,2013-03-20 22:15:00
5:35 PM,66.2,26.6,23,30.11,10.0,ESE,9.2,-,N/A,,Clear,110,2013-03-20 22:35:00
5:55 PM,66.2,26.6,23,30.10,10.0,ESE,10.4,16.1,N/A,,Clear,110,2013-03-20 22:55:00
6:15 PM,66.2,26.6,23,30.11,10.0,ESE,8.1,18.4,N/A,,Clear,110,2013-03-20 23:15:00
6:35 PM,64.4,28.4,26,30.10,10.0,SE,8.1,-,N/A,,Clear,130,2013-03-20 23:35:00
6:55 PM,64.4,28.4,26,30.09,10.0,ESE,10.4,16.1,N/A,,Clear,120,2013-03-20 23:55:00
7:15 PM,62.6,30.2,30,30.08,10.0,SE,6.9,-,N/A,,Clear,140,2013-03-21 00:15:00
7:35 PM,62.6,30.2,30,30.08,10.0,SE,8.1,-,N/A,,Clear,130,2013-03-21 00:35:00
7:55 PM,59.0,30.2,34,30.08,10.0,SE,6.9,-,N/A,,Clear,130,2013-03-21 00:55:00
8:15 PM,59.0,32.0,36,30.07,10.0,SE,8.1,-,N/A,,Clear,130,2013-03-21 01:15:00
8:35 PM,59.0,32.0,36,30.07,10.0,SE,6.9,-,N/A,,Clear,130,2013-03-21 01:35:00
8:55 PM,57.2,32.0,38,30.06,10.0,SE,8.1,-,N/A,,Clear,130,2013-03-21 01:55:00
9:15 PM,55.4,32.0,41,30.06,10.0,SE,8.1,-,N/A,,Clear,130,2013-03-21 02:15:00
9:35 PM,55.4,32.0,41,30.05,10.0,SE,8.1,-,N/A,,Clear,130,2013-03-21 02:35:00
9:55 PM,55.4,32.0,41,30.05,10.0,SE,8.1,-,N/A,,Clear,140,2013-03-21 02:55:00
10:15 PM,55.4,32.0,41,30.05,10.0,SE,9.2,-,N/A,,Clear,130,2013-03-21 03:15:00
10:35 PM,55.4,32.0,41,30.04,10.0,ESE,10.4,-,N/A,,Partly Cloudy,120,2013-03-21 03:35:00
10:55 PM,55.4,32.0,41,30.04,10.0,SE,10.4,-,N/A,,Partly Cloudy,130,2013-03-21 03:55:00
11:15 PM,55.4,32.0,41,30.05,10.0,SE,8.1,-,N/A,,Partly Cloudy,130,2013-03-21 04:15:00
11:35 PM,55.4,32.0,41,30.04,10.0,SE,8.1,-,N/A,,Scattered Clouds,130,2013-03-21 04:35:00
11:55 PM,53.6,32.0,44,30.02,10.0,SE,9.2,-,N/A,,Mostly Cloudy,130,2013-03-21 04:55:00